STARLINK-36742, 67907

Orbit data source: Space-Track

STARLINK-36742, 67907 is a payload satellite owned by SpaceX/Seattle (US) in LEO that was launched on Sun, 22 Feb 2026 UTC via an FALCON 9 launch vehicle from the Air Force Eastern Test Range (AFETR). Payload-class satellites include a variety of spacecraft equipped with specific instruments for various scientific and technological missions. These include communications satellites like Starlink; space stations such as the ISS; scientific satellites like the Hubble; Earth observation satellites from companies like Planet Labs, Umbra, and HawkEye 360; GPS; miniature CubeSats for education and research; and military/defense satellites.

Loading next visibility...
Identifier
67907, 2026-036D
Orbit
LEO
Country
Flag of USUS
Related business
Manufacturer
SpaceX/Seattle
Mission
Operational Commercial Communications
Bus & Motor
STARLINK V2MO, Unknown motor
Mass
575 kg wet, ~530 kg dry
Launch date (UTC)
2026-02-22 (4 months ago)
Launch vehicle
FALCON 9
Launch site
Air Force Eastern Test Range (AFETR)
Object type
Payload
Rocket body
Debris
Shape & HBR
Box + 2 Pan, 17.7 m
Radar Cross Section
36.964 m², Large (>1 m²)

Expand to show TLE details & history
Last TLE update: 13 hours ago

TLE from 13 hours ago
0 STARLINK-36742
1 67907U 26036D   26171.31142191  .00011169  00000-0  41463-3 0  9994
2 67907  43.0038  25.9895 0001287 274.5685  85.5020 15.27592617 19412
Epoch: 2026-06-20T07:28Z
TLE epoch observation values (Epoch: 2026-06-20T07:28:26.853Z)
Latitude
0.00002°
Longitude
5.34978°
Altitude
482.718 km
Speed
7.626 km/s
True Right ascension
01h 43m 57s
True Declination
0° 00' 00"
Sunlit
Object was in daylight at epoch
Visualization orbit readout
Latitude
Unknown
Longitude
Unknown
Altitude
Unknown
Speed
Unknown
Apparent Right ascension
Unknown
Apparent Declination
Unknown
Sunlit
N/A
Visualization observer readout
Local Sidereal Time
07:18:48
Azimuth
Unknown
Elevation
Unknown
Doppler factor
Unknown
Orbital elements
Apogee altitude
485.839 km
Perigee altitude
484.073 km
Semi-major axis
6,863.093 km
Eccentricity
0.00013
Inclination
43.0038°
RAAN
25.9895°
Arg. of periapsis
274.5685°
True anomaly
85.5167°
Mean anomaly
85.502°
Eccentric anomaly
85.50935°
Mean motion
3.81736 °/min
Orbital period
94.31 mins
BSTAR
0.00041463
Loading maneuver chart data...
Computing Atmospheric mass density...
Loading historical data...
Loading historical data...
Loading historical data...
Loading historical data...
Loading historical data...
Loading historical data...
Loading historical data...

Documentation

Showing up to 5 results
|